Location: Marion Hill
(40.7303°N, 80.2959°W)
Time: 18:48:28
(UTC+00:00)

CZ-4 R/B - Pass Details

Date: 29 October 2020
Orbit: 579 x 590 km, 97.8° (Epoch: 24 November)

Event Time Altitude Azimuth Distance (km) Brightness Sun altitude
Rises 23:39:29 0° 165° (SSE) 2,806 7.8 -15.5°
Reaches altitude 10° 23:41:37 10° 165° (SSE) 1,911 7.0 -15.9°
Maximum altitude 23:45:47 86° 76° (ENE) 597 4.4 -16.7°
Drops below altitude 10° 23:49:58 10° 349° (NNW) 1,926 7.2 -17.5°
Sets 23:52:08 0° 349° (NNW) 2,831 8.1 -17.9°
